Concord, NC

11:15 PM EDT on April 28, 2017 (GMT -0400)
Concord Regional

Weather History for KJQF - January, 2013

Change the Weather History Date:

Thursday, January 17, 2013

  Actual Average (KCLT) Record (KCLT)
Temperature  
Mean Temperature 42 °F -  
Max Temperature 51 °F 48 °F 75 °F (1943)
Min Temperature 33 °F 28 °F 5 °F (1977)
Degree Days  
Heating Degree Days 23    
Moisture  
Dew Point 45 °F    
Average Humidity 95    
Maximum Humidity 100    
Minimum Humidity 87    
Precipitation  
Precipitation 0.48 in - - ()
Sea Level Pressure  
Sea Level Pressure 30.00 in    
Wind  
Wind Speed 4 mph (NNE)    
Max Wind Speed 21 mph    
Max Gust Speed 37 mph    
Visibility 4 miles    
Events Rain , Thunderstorm    
Averages and records for this station are not official NWS values.
T = Trace of Precipitation, MM = Missing Value Source: NWS Daily Summary

Daily Weather History Graph

Daily Weather History Graph

Search for Another Location

Airport or City:

Trip Planner

Search our weather history database for the weather conditions in past years. The results will help you decide how hot, cold, wet, or windy it might be!

Date:

Astronomy

Jan. 17, 2013 Rise Set
Actual Time 7:30 AM EST 5:35 PM EST
Civil Twilight 7:03 AM EST 6:03 PM EST
Nautical Twilight 6:31 AM EST 6:34 PM EST
Astronomical Twilight 6:01 AM EST 7:05 PM EST
Moon 10:52 AM EST (1/17) No Moon Set
Length of Visible Light 11h 00m
Length of Day
10h 05m
Waxing Crescent, 37% of the Moon is Illuminated
Jan 17
Waxing Crescent
Jan 18
First Quarter
Jan 26
Full
Feb 3
Last Quarter
Feb 10
New

Hourly Weather History & Observations

Time (EST) Temp. Windchill Dew Point Humidity Pressure Visibility Wind Dir Wind Speed Gust Speed Precip Events Conditions
12:15 AM 50.0 °F - 48.2 °F 94% 30.02 in 3.0 mi Calm Calm - 0.04 in   Overcast
12:35 AM 50.0 °F - 48.2 °F 94% 30.01 in 3.0 mi Calm Calm - 0.07 in   Overcast
12:55 AM 50.0 °F - 50.0 °F 100% 30.01 in 4.0 mi Calm Calm - 0.08 in   Overcast
1:15 AM 50.0 °F - 50.0 °F 100% 30.01 in 4.0 mi Calm Calm - 0.02 in   Overcast
1:35 AM 50.0 °F - 50.0 °F 100% 30.00 in 4.0 mi Calm Calm - 0.02 in   Overcast
1:55 AM 50.0 °F - 50.0 °F 100% 29.99 in 5.0 mi Calm Calm - 0.03 in   Overcast
2:35 AM 50.0 °F - 50.0 °F 100% 29.99 in 7.0 mi Calm Calm - N/A   Overcast
2:55 AM 50.0 °F - 50.0 °F 100% 30.00 in 5.0 mi West 3.5 mph - 0.01 in   Overcast
3:15 AM 50.0 °F - 50.0 °F 100% 29.99 in 3.0 mi Calm Calm - 0.02 in   Overcast
3:35 AM 50.0 °F - 50.0 °F 100% 29.99 in 4.0 mi Calm Calm - 0.05 in   Overcast
3:55 AM 50.0 °F - 50.0 °F 100% 29.99 in 5.0 mi Calm Calm - 0.05 in   Overcast
4:15 AM 50.0 °F - 50.0 °F 100% 29.98 in 5.0 mi Calm Calm - N/A   Overcast
4:35 AM 50.0 °F - 50.0 °F 100% 29.98 in 4.0 mi Calm Calm - 0.01 in   Overcast
4:55 AM 50.0 °F - 50.0 °F 100% 29.98 in 3.0 mi North 3.5 mph - 0.02 in   Overcast
5:15 AM 50.0 °F - 50.0 °F 100% 29.98 in 2.5 mi Calm Calm - N/A   Overcast
5:35 AM 50.0 °F - 50.0 °F 100% 29.98 in 2.5 mi Calm Calm - 0.01 in   Overcast
5:55 AM 50.0 °F - 50.0 °F 100% 29.98 in 3.0 mi Calm Calm - 0.02 in   Overcast
6:15 AM 51.8 °F - 50.0 °F 94% 29.98 in 5.0 mi North 4.6 mph - 0.02 in   Overcast
6:35 AM 51.8 °F - 50.0 °F 94% 29.99 in 4.0 mi North 4.6 mph - 0.06 in   Overcast
6:55 AM 51.8 °F - 51.8 °F 100% 29.98 in 3.0 mi Calm Calm - N/A   Overcast
7:55 AM 51.8 °F - 50.0 °F 94% 30.00 in 3.0 mi NE 3.5 mph - N/A Rain Rain
8:55 AM 51.8 °F - 50.0 °F 94% 30.02 in 2.0 mi NE 3.5 mph - N/A Rain Rain
9:55 AM 50.0 °F - 48.2 °F 94% 30.01 in 3.0 mi ENE 6.9 mph 17.3 mph N/A Rain Rain
10:55 AM 50.0 °F - 48.2 °F 94% 30.02 in 2.0 mi NE 8.1 mph - N/A Rain Rain
11:55 AM 48.2 °F - 46.4 °F 93% 29.98 in 2.0 mi NE 11.5 mph 17.3 mph N/A Rain Rain
12:55 PM 48.2 °F - 46.4 °F 93% 29.91 in 3.0 mi ENE 17.3 mph 28.8 mph N/A Rain Rain
1:55 PM 46.4 °F 40.1 °F 44.6 °F 93% 29.89 in 3.0 mi NNE 15.0 mph 21.9 mph N/A Rain Rain
2:55 PM 44.6 °F 37.2 °F 42.8 °F 93% 29.87 in 2.0 mi NE 17.3 mph 23.0 mph N/A Rain Rain
3:55 PM 44.6 °F 37.4 °F 41.0 °F 87% 29.89 in 2.0 mi NNE 16.1 mph 21.9 mph N/A Rain Rain
4:55 PM 42.8 °F 34.0 °F 39.2 °F 87% 29.83 in 2.0 mi NNE 20.7 mph 31.1 mph N/A Rain Rain
5:55 PM 42.8 °F 36.6 °F 39.2 °F 87% 29.95 in 2.0 mi NNW 11.5 mph - N/A Rain Rain
6:55 PM 42.8 °F 34.3 °F 39.2 °F 87% 29.91 in 2.0 mi NNE 19.6 mph 32.2 mph N/A Rain Rain
7:55 PM 39.2 °F 29.6 °F 37.4 °F 93% 30.02 in 3.0 mi NNE 19.6 mph 36.8 mph N/A Rain Rain
8:15 PM 35.6 °F 25.5 °F 33.8 °F 93% 30.02 in 3.0 mi North 17.3 mph 28.8 mph 0.04 in   Overcast
8:55 PM 35.6 °F 29.2 °F 33.8 °F 93% 30.06 in 7.0 mi NNE 8.1 mph - 0.09 in   Overcast
9:15 PM 35.6 °F 29.9 °F 33.8 °F 93% 30.10 in 4.0 mi North 6.9 mph - 0.03 in   Overcast
9:35 PM 35.6 °F 29.9 °F 33.8 °F 93% 30.14 in 4.0 mi North 6.9 mph - N/A   Overcast
9:55 PM 35.6 °F 29.2 °F 33.8 °F 93% 30.16 in 4.0 mi NW 8.1 mph - N/A Rain Rain
10:15 PM 33.8 °F 27.7 °F 32.0 °F 93% 30.19 in 2.0 mi NW 6.9 mph - 0.03 in Thunderstorm Thunderstorm
10:35 PM 33.8 °F 30.8 °F 32.0 °F 93% 30.21 in 2.0 mi WNW 3.5 mph - N/A   Overcast
10:55 PM 33.8 °F - 32.0 °F 93% 30.19 in 7.0 mi Calm Calm - 0.09 in   Overcast